EW3662 Weather Reports


Display with metric or nautical units.
time (UTC)temp
F
wind
direction
speed
MPH
gust
MPH
rain 1hr
in
rain 24hr
in
rain mn
in
humidity
%
barometer
mb
20260509194538 78 0 6.0 13.0 0.00 0.00 0.00 23 1013.0
20260509194037 78 0 7.0 16.0 0.00 0.00 0.00 22 1013.0
20260509193537 78 0 7.0 16.0 0.00 0.00 0.00 22 1013.0
20260509193038 78 0 8.0 16.0 0.00 0.00 0.00 23 1013.0
20260509192809 78 0 9.0 18.0 0.00 0.00 0.00 24 1013.0
20260509192035 77 0 11.0 20.0 0.00 0.00 0.00 21 1013.0
20260509191536 77 0 9.0 20.0 0.00 0.00 0.00 21 1013.0
20260509191036 77 0 7.0 19.0 0.00 0.00 0.00 27 1012.9
20260509190534 77 0 10.0 20.0 0.00 0.00 0.00 22 1013.1
20260509190036 77 0 10.0 20.0 0.00 0.00 0.00 20 1013.0
20260509185533 77 0 8.0 17.0 0.00 0.00 0.00 21 1013.1
20260509185306 76 0 8.0 17.0 0.00 0.00 0.00 26 1013.1
20260509184532 76 0 8.0 18.0 0.00 0.00 0.00 23 1013.1
20260509184032 76 0 8.0 18.0 0.00 0.00 0.00 23 1013.1
20260509183533 76 0 8.0 14.0 0.00 0.00 0.00 23 1013.1
20260509183032 76 0 9.0 15.0 0.00 0.00 0.00 24 1013.2
20260509182530 76 0 9.0 17.0 0.00 0.00 0.00 22 1013.2
20260509182031 76 0 9.0 17.0 0.00 0.00 0.00 22 1013.4
20260509181532 76 0 9.0 17.0 0.00 0.00 0.00 25 1013.4
20260509181032 76 0 9.0 17.0 0.00 0.00 0.00 23 1013.4
20260509180531 76 0 8.0 14.0 0.00 0.00 0.00 23 1013.4
20260509180032 76 0 8.0 13.0 0.00 0.00 0.00 22 1013.4
20260509175531 76 0 8.0 13.0 0.00 0.00 0.00 26 1013.4
20260509175030 76 0 9.0 19.0 0.00 0.00 0.00 23 1013.4
20260509174528 76 0 9.0 19.0 0.00 0.00 0.00 22 1013.6
20260509174030 75 0 8.0 17.0 0.00 0.00 0.00 23 1013.5
20260509173529 75 0 8.0 17.0 0.00 0.00 0.00 22 1013.6
20260509173029 74 0 8.0 15.0 0.00 0.00 0.00 25 1013.4
20260509172529 74 0 9.0 25.0 0.00 0.00 0.00 22 1013.5
20260509172029 74 0 11.0 25.0 0.00 0.00 0.00 26 1013.6
20260509171802 74 0 10.0 21.0 0.00 0.00 0.00 26 1013.6
20260509171029 74 0 11.0 21.0 0.00 0.00 0.00 27 1013.5
20260509170528 73 0 10.0 21.0 0.00 0.00 0.00 25 1013.6
20260509170031 74 0 10.0 22.0 0.00 0.00 0.00 27 1013.6
20260509165526 73 0 11.0 22.0 0.00 0.00 0.00 26 1013.6
20260509165029 73 0 11.0 21.0 0.00 0.00 0.00 25 1013.7
20260509164525 73 0 11.0 17.0 0.00 0.00 0.00 27 1013.6
20260509164256 73 0 10.0 18.0 0.00 0.00 0.00 26 1013.7
20260509163756 73 0 7.0 18.0 0.00 0.00 0.00 26 1013.7
20260509163255 73 0 4.0 15.0 0.00 0.00 0.00 30 1013.7
20260509162525 73 0 6.0 15.0 0.00 0.00 0.00 31 1013.7
20260509162255 72 0 7.0 17.0 0.00 0.00 0.00 29 1013.8
20260509161525 72 0 5.0 17.0 0.00 0.00 0.00 29 1013.8
20260509161025 72 0 4.0 9.0 0.00 0.00 0.00 33 1013.7
20260509160523 71 0 6.0 10.0 0.00 0.00 0.00 33 1013.7
20260509160022 71 0 6.0 12.0 0.00 0.00 0.00 34 1013.7
20260509155523 70 0 5.0 12.0 0.00 0.00 0.00 34 1013.7
20260509155023 70 0 7.0 13.0 0.00 0.00 0.00 34 1013.7
20260509154521 69 0 7.0 13.0 0.00 0.00 0.00 34 1013.7
20260509154019 69 0 7.0 12.0 0.00 0.00 0.00 36 1013.7
20260509153518 68 0 7.0 12.0 0.00 0.00 0.00 36 1013.6
20260509153018 67 0 7.0 13.0 0.00 0.00 0.00 38 1013.6
20260509152519 67 0 5.0 13.0 0.00 0.00 0.00 38 1013.6
20260509152018 66 0 2.0 12.0 0.00 0.00 0.00 40 1013.5
20260509151516 65 0 1.0 3.0 0.00 0.00 0.00 48 1013.6
20260509151013 64 0 2.0 5.0 0.00 0.00 0.00 50 1013.5
20260509150512 63 0 2.0 5.0 0.00 0.00 0.00 53 1013.5
20260509150013 62 0 1.0 4.0 0.00 0.00 0.00 53 1013.5
20260509145512 60 0 1.0 3.0 0.00 0.00 0.00 50 1013.5
20260509145012 59 0 2.0 4.0 0.00 0.00 0.00 56 1013.5
20260509144513 58 0 2.0 4.0 0.00 0.00 0.00 57 1013.6
20260509144011 57 0 1.0 4.0 0.00 0.00 0.00 56 1013.7
20260509143510 57 0 1.0 3.0 0.00 0.00 0.00 59 1013.7
20260509143011 56 0 1.0 3.0 0.00 0.00 0.00 59 1013.6
20260509142509 55 0 0.0 2.0 0.00 0.00 0.00 60 1013.5
20260509142007 55 0 0.0 3.0 0.00 0.00 0.00 65 1013.4
20260509141506 54 0 0.0 3.0 0.00 0.00 0.00 65 1013.4
20260509141236 53 0 0.0 0.0 0.00 0.00 0.00 68 1013.4
20260509140506 53 0 0.0 0.0 0.00 0.00 0.00 70 1013.4
20260509140237 52 0 0.0 3.0 0.00 0.00 0.00 69 1013.2
20260509135504 51 0 1.0 5.0 0.00 0.00 0.00 75 1013.4
20260509135002 51 0 2.0 5.0 0.00 0.00 0.00 77 1013.4
20260509134501 50 0 2.0 5.0 0.00 0.00 0.00 78 1013.2
20260509134001 49 0 1.0 5.0 0.00 0.00 0.00 79 1013.4
20260509133459 49 0 0.0 3.0 0.00 0.00 0.00 82 1013.4
20260509133000 49 0 0.0 3.0 0.00 0.00 0.00 82 1013.4
20260509132501 49 0 1.0 3.0 0.00 0.00 0.00 82 1013.2
20260509132232 48 0 1.0 6.0 0.00 0.00 0.00 82 1013.2
20260509131455 48 0 1.0 6.0 0.00 0.00 0.00 82 1013.4
20260509130956 48 0 1.0 3.0 0.00 0.00 0.00 82 1013.2
20260509130456 48 0 0.0 2.0 0.00 0.00 0.00 83 1013.0
20260509125954 47 0 0.0 2.0 0.00 0.00 0.00 84 1013.2
20260509125726 47 0 0.0 2.0 0.00 0.00 0.00 84 1013.1
20260509124952 47 0 0.0 2.0 0.00 0.00 0.00 85 1013.1
20260509124731 47 0 0.0 2.0 0.00 0.00 0.00 85 1013.0
20260509124453 47 0 0.0 2.0 0.00 0.00 0.00 85 1013.0
20260509123450 46 0 0.0 2.0 0.00 0.00 0.00 85 1013.0
20260509122950 46 0 0.0 2.0 0.00 0.00 0.00 85 1012.9
20260509122447 46 0 0.0 2.0 0.00 0.00 0.00 85 1012.8
20260509121947 46 0 0.0 2.0 0.00 0.00 0.00 86 1012.7
20260509121449 46 0 1.0 2.0 0.00 0.00 0.00 86 1012.7
20260509120946 46 0 1.0 2.0 0.00 0.00 0.00 86 1012.7
20260509120446 45 0 0.0 2.0 0.00 0.00 0.00 85 1012.7
20260509115946 45 171 0.0 0.0 0.00 0.01 0.00 84 1012.6
20260509115451 45 0 0.0 0.0 0.00 0.01 0.00 83 1012.4
20260509115446 45 0 0.0 0.0 0.00 0.01 0.00 83 1012.4
20260509114445 46 0 0.0 0.0 0.00 0.01 0.00 83 1012.3
20260509113944 46 0 0.0 2.0 0.00 0.02 0.00 83 1012.3
20260509113446 46 163 0.0 2.0 0.00 0.02 0.00 83 1012.2
20260509112945 46 0 0.0 2.0 0.00 0.02 0.00 83 1012.2
20260509112445 46 0 0.0 0.0 0.00 0.02 0.00 83 1012.2
20260509111943 46 0 0.0 2.0 0.00 0.02 0.00 83 1012.1
20260509111445 46 0 0.0 2.0 0.00 0.02 0.00 83 1012.1
20260509110945 46 0 1.0 2.0 0.00 0.02 0.00 83 1012.2
20260509110444 46 12 1.0 2.0 0.00 0.02 0.00 83 1012.0
20260509105943 46 340 0.0 2.0 0.00 0.02 0.00 83 1012.0
20260509105720 47 288 0.0 2.0 0.00 0.02 0.00 82 1011.7
20260509105445 47 288 0.0 0.0 0.00 0.02 0.00 82 1011.7
20260509104444 47 288 0.0 2.0 0.00 0.02 0.00 82 1011.9
20260509103944 47 0 0.0 1.0 0.00 0.02 0.00 81 1011.9
20260509103445 47 287 0.0 2.0 0.00 0.02 0.00 81 1011.9
20260509102944 48 0 0.0 2.0 0.00 0.02 0.00 82 1012.0
20260509102718 48 0 0.0 2.0 0.00 0.02 0.00 81 1011.6
20260509101944 48 0 0.0 2.0 0.00 0.02 0.00 81 1011.5
20260509101445 48 283 1.0 2.0 0.00 0.02 0.00 81 1011.5
20260509101214 48 0 1.0 2.0 0.00 0.02 0.00 81 1011.4
20260509100445 48 0 2.0 2.0 0.00 0.02 0.00 81 1011.4
20260509095946 47 0 2.0 4.0 0.00 0.02 0.00 81 1011.5
20260509095445 47 0 2.0 4.0 0.00 0.02 0.00 81 1011.5
20260509095222 47 0 2.0 4.0 0.00 0.02 0.00 81 1011.6
20260509094944 47 0 2.0 6.0 0.00 0.02 0.00 81 1011.5
20260509094443 47 0 3.0 6.0 0.00 0.02 0.00 81 1011.5
20260509093443 47 0 1.0 4.0 0.00 0.02 0.00 81 1011.6
20260509092943 48 0 0.0 4.0 0.00 0.03 0.00 79 1011.7
20260509092446 48 0 0.0 0.0 0.00 0.03 0.00 79 1011.6
20260509091943 48 0 0.0 2.0 0.00 0.03 0.00 78 1011.9
20260509091444 49 0 0.0 2.0 0.00 0.03 0.00 78 1011.7
20260509091214 49 0 0.0 3.0 0.00 0.03 0.00 78 1011.7
20260509090444 49 0 2.0 5.0 0.00 0.03 0.00 78 1011.7
20260509085945 49 0 3.0 5.0 0.00 0.03 0.00 78 1011.6
20260509085444 49 0 3.0 5.0 0.00 0.03 0.00 78 1011.6
20260509084944 49 0 2.0 5.0 0.00 0.03 0.00 78 1011.6
20260509084721 49 0 0.0 0.0 0.00 0.03 0.00 79 1011.6
20260509084444 49 0 1.0 4.0 0.00 0.03 0.00 78 1011.6
20260509083443 49 0 0.0 0.0 0.00 0.03 0.00 77 1011.6
20260509082943 50 0 0.0 0.0 0.00 0.03 0.00 77 1011.5
20260509082714 50 0 0.0 0.0 0.00 0.03 0.00 77 1011.5
20260509081944 50 0 0.0 0.0 0.00 0.03 0.00 76 1011.7
20260509081444 50 0 0.0 0.0 0.00 0.03 0.00 77 1011.6
20260509080944 51 0 0.0 2.0 0.00 0.03 0.00 75 1011.6
20260509080446 51 0 0.0 2.0 0.00 0.03 0.00 74 1011.6
20260509075943 51 0 1.0 5.0 0.00 0.03 0.00 73 1011.7
20260509075442 51 0 2.0 5.0 0.00 0.03 0.00 73 1011.7
20260509074944 51 0 1.0 4.0 0.00 0.03 0.00 72 1011.9
20260509074442 51 0 1.0 3.0 0.00 0.03 0.00 71 1011.9
20260509073941 52 0 1.0 4.0 0.00 0.03 0.00 71 1012.2
20260509073714 52 0 1.0 4.0 0.00 0.03 0.00 71 1012.1
20260509072940 53 0 1.0 3.0 0.00 0.03 0.00 68 1012.2
20260509072440 53 0 0.0 3.0 0.00 0.03 0.00 67 1012.2
20260509071940 54 0 0.0 3.0 0.00 0.03 0.00 67 1012.4
20260509071441 54 0 0.0 0.0 0.00 0.03 0.00 66 1012.4
20260509070939 55 0 0.0 2.0 0.00 0.03 0.00 63 1012.3
20260509070436 55 0 1.0 2.0 0.00 0.03 0.00 62 1012.2
20260509065936 56 0 1.0 4.0 0.00 0.03 0.00 61 1012.3
20260509065436 56 0 2.0 4.0 0.00 0.03 0.00 60 1012.4
20260509064934 57 0 2.0 4.0 0.00 0.03 0.00 58 1012.3
20260509064433 57 161 3.0 7.0 0.00 0.03 0.00 56 1012.4
20260509063930 57 0 3.0 7.0 0.00 0.03 0.00 55 1012.4
20260509063427 57 0 3.0 7.0 0.00 0.03 0.00 57 1012.4
20260509062929 57 0 4.0 7.0 0.00 0.03 0.00 57 1012.6
20260509062427 57 0 5.0 7.0 0.00 0.03 0.00 58 1012.4
20260509061924 57 0 5.0 8.0 0.00 0.03 0.00 58 1012.6
20260509061422 56 0 3.0 8.0 0.00 0.03 0.00 59 1012.7
20260509060923 55 0 2.0 6.0 0.00 0.03 0.00 63 1012.8
20260509060419 55 0 3.0 5.0 0.00 0.03 0.00 63 1012.9
20260509055920 55 0 2.0 6.0 0.00 0.03 0.03 63 1012.9
20260509055420 55 0 2.0 6.0 0.00 0.03 0.03 62 1013.0
20260509054919 55 0 3.0 6.0 0.00 0.03 0.03 63 1013.1
20260509054420 55 0 2.0 6.0 0.00 0.03 0.03 63 1013.1
20260509053917 55 0 1.0 4.0 0.00 0.03 0.03 63 1013.2
20260509053415 54 0 0.0 0.0 0.00 0.03 0.03 64 1013.4
20260509052916 54 0 0.0 0.0 0.00 0.03 0.03 65 1013.4
20260509052415 54 0 1.0 4.0 0.00 0.03 0.03 65 1013.5
20260509051912 54 0 2.0 4.0 0.00 0.03 0.03 66 1013.5
20260509051412 54 0 2.0 4.0 0.00 0.03 0.03 64 1013.4
20260509050907 54 0 0.0 4.0 0.00 0.03 0.03 66 1013.5
20260509050408 54 0 0.0 0.0 0.00 0.03 0.03 68 1013.6
20260509045907 54 0 0.0 0.0 0.00 0.03 0.03 65 1013.6
20260509045409 55 0 0.0 0.0 0.00 0.03 0.03 65 1013.6
20260509045142 55 0 0.0 0.0 0.00 0.03 0.03 67 1013.6
20260509044409 56 0 0.0 2.0 0.00 0.03 0.03 64 1013.6
20260509043909 56 0 0.0 3.0 0.00 0.03 0.03 63 1013.7
20260509043408 56 0 0.0 3.0 0.00 0.03 0.03 60 1013.8
20260509043139 57 0 0.0 0.0 0.00 0.03 0.03 60 1013.8
20260509042638 57 0 1.0 3.0 0.00 0.03 0.03 59 1013.8
20260509041907 58 0 2.0 4.0 0.00 0.03 0.03 58 1013.8
20260509041407 58 0 2.0 4.0 0.00 0.03 0.03 56 1013.8
20260509040905 58 0 2.0 4.0 0.00 0.03 0.03 55 1013.8
20260509040404 58 0 3.0 5.0 0.00 0.03 0.03 54 1013.7
20260509040133 59 0 3.0 5.0 0.00 0.03 0.03 54 1013.6
20260509035632 59 0 3.0 5.0 0.00 0.03 0.03 54 1013.6
20260509034901 59 0 3.0 5.0 0.00 0.03 0.03 54 1013.6
20260509034359 59 0 3.0 4.0 0.00 0.03 0.03 54 1013.6
20260509033858 59 0 3.0 4.0 0.00 0.03 0.03 54 1013.6
20260509033631 60 0 3.0 4.0 0.00 0.03 0.03 53 1013.6
20260509032858 60 0 3.0 6.0 0.00 0.03 0.03 52 1013.6
20260509032357 60 0 4.0 6.0 0.00 0.03 0.03 51 1013.5
20260509031857 60 0 3.0 6.0 0.00 0.03 0.03 51 1013.5
20260509031356 60 0 3.0 5.0 0.00 0.03 0.03 51 1013.5
20260509030856 60 0 3.0 5.0 0.00 0.03 0.03 51 1013.4
20260509030356 60 0 2.0 4.0 0.00 0.03 0.03 51 1013.4
20260509025856 61 0 2.0 4.0 0.00 0.03 0.03 51 1013.4
20260509025623 61 0 2.0 3.0 0.00 0.03 0.03 50 1013.4
20260509024853 61 0 1.0 3.0 0.00 0.03 0.03 50 1013.4
20260509024350 62 0 2.0 3.0 0.00 0.03 0.03 49 1013.4
20260509023854 62 0 3.0 5.0 0.00 0.03 0.03 48 1013.5
20260509023849 62 0 2.0 4.0 0.00 0.03 0.03 48 1013.5
20260509023119 63 0 3.0 5.0 0.00 0.03 0.03 47 1013.4
20260509022352 63 0 3.0 5.0 0.00 0.03 0.03 47 1013.4
20260509022346 63 0 3.0 5.0 0.00 0.03 0.03 47 1013.4
20260509021346 64 0 3.0 5.0 0.00 0.03 0.03 47 1013.2
20260509020851 65 0 3.0 6.0 0.00 0.03 0.03 44 1013.1
20260509020845 65 0 3.0 5.0 0.00 0.03 0.03 45 1013.2
20260509015846 65 0 3.0 6.0 0.00 0.03 0.03 43 1013.1
20260509015345 65 0 3.0 6.0 0.00 0.03 0.03 42 1013.1
20260509014845 66 0 4.0 7.0 0.00 0.03 0.03 41 1013.1
20260509014345 66 0 5.0 8.0 0.00 0.03 0.03 41 1013.0
20260509014117 66 0 5.0 9.0 0.00 0.03 0.03 40 1012.9
20260509013614 67 0 5.0 9.0 0.00 0.03 0.03 40 1012.9
20260509012843 68 0 5.0 8.0 0.00 0.03 0.03 40 1012.9
20260509012343 68 0 5.0 9.0 0.00 0.03 0.03 38 1012.9
20260509011843 69 0 5.0 9.0 0.00 0.03 0.03 38 1012.9
20260509011343 70 0 4.0 8.0 0.00 0.03 0.03 35 1012.8
20260509010845 71 0 4.0 7.0 0.00 0.03 0.03 35 1012.8
20260509010344 71 0 4.0 8.0 0.00 0.03 0.03 35 1012.8
20260509005842 71 0 4.0 8.0 0.00 0.03 0.03 33 1012.8
20260509005343 72 0 5.0 8.0 0.00 0.03 0.03 32 1012.8
20260509004841 72 0 5.0 8.0 0.00 0.03 0.03 34 1012.8
20260509004342 72 0 3.0 8.0 0.00 0.03 0.03 33 1012.8
20260509003844 73 0 3.0 7.0 0.00 0.03 0.03 31 1012.8
20260509003343 73 0 4.0 6.0 0.00 0.03 0.03 32 1012.8
20260509002840 72 0 4.0 7.0 0.00 0.03 0.03 33 1012.9
20260509002340 72 0 3.0 7.0 0.00 0.03 0.03 34 1012.8
20260509001836 72 0 4.0 8.0 0.00 0.03 0.03 37 1012.8
20260509001335 72 0 5.0 8.0 0.00 0.03 0.03 32 1012.7
20260509000835 72 0 3.0 8.0 0.00 0.03 0.03 33 1012.7
20260509000334 72 0 2.0 6.0 0.00 0.03 0.03 33 1012.8
20260508235833 72 0 3.0 6.0 0.00 0.03 0.03 31 1012.8
20260508235333 72 0 2.0 6.0 0.00 0.03 0.03 32 1012.8
20260508235104 72 0 2.0 7.0 0.00 0.03 0.03 32 1012.9
20260508234333 72 0 3.0 7.0 0.00 0.03 0.03 34 1012.8
20260508233834 72 0 3.0 6.0 0.00 0.03 0.03 33 1012.9
20260508233332 72 0 3.0 6.0 0.00 0.03 0.03 33 1012.9
20260508232831 72 0 2.0 5.0 0.00 0.03 0.03 34 1012.9
20260508232330 72 0 3.0 5.0 0.00 0.03 0.03 33 1013.0
20260508231832 71 0 3.0 7.0 0.00 0.03 0.03 33 1013.0
20260508231329 71 0 3.0 7.0 0.00 0.03 0.03 32 1013.0
20260508230829 71 0 4.0 8.0 0.00 0.03 0.03 33 1013.0
20260508230329 71 0 4.0 8.0 0.00 0.03 0.03 32 1013.1
20260508225602 71 0 5.0 9.0 0.00 0.03 0.03 33 1013.0
20260508224829 71 0 5.0 10.0 0.00 0.03 0.03 33 1013.1
20260508224329 72 0 6.0 11.0 0.00 0.03 0.03 32 1013.1
20260508223829 72 0 5.0 11.0 0.00 0.03 0.03 32 1013.0
20260508223329 72 0 4.0 10.0 0.00 0.03 0.03 35 1013.1
20260508223101 72 0 5.0 10.0 0.00 0.03 0.03 32 1013.2
20260508222330 73 157 5.0 11.0 0.00 0.03 0.03 31 1013.1
20260508221829 73 0 5.0 11.0 0.00 0.03 0.03 31 1013.1
20260508221330 74 0 5.0 10.0 0.00 0.03 0.03 34 1013.1
20260508221058 74 0 4.0 9.0 0.00 0.03 0.03 32 1013.1
20260508220601 74 0 3.0 9.0 0.00 0.03 0.03 34 1013.1
20260508215827 73 0 5.0 15.0 0.00 0.03 0.03 36 1013.1
20260508215328 73 0 6.0 15.0 0.00 0.03 0.03 31 1013.4
20260508214828 74 0 4.0 9.0 0.00 0.03 0.03 31 1013.2
20260508214326 73 0 3.0 7.0 0.00 0.03 0.03 37 1013.2
20260508213827 72 0 3.0 7.0 0.00 0.03 0.03 34 1013.4
20260508213328 71 0 3.0 8.0 0.00 0.03 0.03 33 1013.4
20260508212826 71 0 3.0 8.0 0.00 0.03 0.03 32 1013.4
20260508212325 71 0 4.0 12.0 0.00 0.03 0.03 34 1013.5
20260508211826 72 0 6.0 12.0 0.00 0.03 0.03 33 1013.5
20260508211325 72 0 7.0 14.0 0.00 0.03 0.03 32 1013.5
20260508211058 73 0 6.0 14.0 0.00 0.03 0.03 32 1013.5
20260508210325 73 0 5.0 12.0 0.00 0.03 0.03 33 1013.5
20260508205825 73 0 4.0 12.0 0.00 0.03 0.03 35 1013.6
20260508205327 73 0 5.0 12.0 0.00 0.03 0.03 33 1013.6
20260508204826 73 0 5.0 10.0 0.00 0.03 0.03 33 1013.6
20260508204326 73 0 4.0 9.0 0.00 0.03 0.03 34 1013.7
20260508203824 73 0 3.0 9.0 0.00 0.03 0.03 37 1013.8
20260508203324 72 0 3.0 9.0 0.00 0.03 0.03 36 1013.7
20260508203051 73 0 3.0 9.0 0.00 0.03 0.03 37 1013.7
20260508202323 73 0 2.0 6.0 0.00 0.03 0.03 34 1013.7
20260508201822 73 0 4.0 8.0 0.00 0.03 0.03 33 1013.8
20260508201323 73 0 4.0 9.0 0.00 0.03 0.03 36 1014.1
20260508200821 72 0 4.0 9.0 0.00 0.03 0.03 37 1014.1
20260508200323 72 0 4.0 10.0 0.00 0.03 0.03 37 1014.1
20260508200054 71 0 5.0 10.0 0.00 0.03 0.03 38 1014.1
20260508195549 71 0 5.0 11.0 0.00 0.03 0.03 39 1014.2
20260508195050 71 0 3.0 11.0 0.00 0.03 0.03 42 1014.2